Time,TemperatureF,DewpointF,PressureIn,WindDirection,WindDirectionDegrees,WindSpeedMPH,WindSpeedGustMPH,Humidity,HourlyPrecipIn,Conditions,Clouds,dailyrainin,SolarRadiationWatts/m^2,SoftwareType,DateUTC
2013-11-10 00:02:00,35.0,26.0,-100.00,SSW,211,9.0,15.0,68,0.00,,,0.00,0.000000,,2013-11-10 07:02:00,
2013-11-10 00:43:00,35.0,25.0,-100.00,SW,233,7.0,16.0,67,0.00,,,0.00,0.000000,,2013-11-10 07:43:00,
2013-11-10 00:52:00,35.0,25.0,-100.00,SW,233,7.0,16.0,67,0.00,,,0.00,0.000000,,2013-11-10 07:52:00,
2013-11-10 01:02:00,35.0,25.0,-100.00,SW,233,7.0,16.0,67,0.00,,,0.00,0.000000,,2013-11-10 08:02:00,
2013-11-10 01:43:00,35.0,25.0,-100.00,SW,230,6.0,13.0,67,0.00,,,0.00,0.000000,,2013-11-10 08:43:00,
2013-11-10 01:52:00,35.0,25.0,-100.00,SW,230,6.0,13.0,67,0.00,,,0.00,0.000000,,2013-11-10 08:52:00,
2013-11-10 02:02:00,35.0,25.0,-100.00,SW,230,6.0,13.0,67,0.00,,,0.00,0.000000,,2013-11-10 09:02:00,
2013-11-10 02:43:00,36.0,25.0,-100.00,SW,219,9.0,12.0,64,0.00,,,0.00,0.000000,,2013-11-10 09:43:00,
2013-11-10 02:53:00,36.0,25.0,-100.00,SW,219,9.0,12.0,64,0.00,,,0.00,0.000000,,2013-11-10 09:53:00,
2013-11-10 03:02:00,36.0,25.0,-100.00,SW,219,9.0,12.0,64,0.00,,,0.00,0.000000,,2013-11-10 10:02:00,
2013-11-10 03:42:00,36.0,25.0,-100.00,SW,225,9.0,14.0,65,0.00,,,0.00,0.000000,,2013-11-10 10:42:00,
2013-11-10 03:52:00,36.0,25.0,-100.00,SW,225,9.0,14.0,65,0.00,,,0.00,0.000000,,2013-11-10 10:52:00,
2013-11-10 04:02:00,36.0,25.0,-100.00,SW,225,9.0,14.0,65,0.00,,,0.00,0.000000,,2013-11-10 11:02:00,
2013-11-10 04:43:00,36.0,26.0,-100.00,SW,214,10.0,16.0,66,0.00,,,0.00,0.000000,,2013-11-10 11:43:00,
2013-11-10 04:52:00,36.0,26.0,-100.00,SW,214,10.0,16.0,66,0.00,,,0.00,0.000000,,2013-11-10 11:52:00,
2013-11-10 05:02:00,36.0,26.0,-100.00,SW,214,10.0,16.0,66,0.00,,,0.00,0.000000,,2013-11-10 12:02:00,
2013-11-10 08:43:00,38.0,28.0,-100.00,SSW,209,7.0,14.0,67,-99.99,,,-99.99,9.000000,,2013-11-10 15:43:00,
2013-11-10 08:53:00,38.0,28.0,-100.00,SSW,209,7.0,14.0,67,-99.99,,,-99.99,9.000000,,2013-11-10 15:53:00,
2013-11-10 09:03:00,38.0,28.0,-100.00,SSW,209,7.0,14.0,67,-99.99,,,-99.99,9.000000,,2013-11-10 16:03:00,
2013-11-10 09:42:00,40.0,28.0,-100.00,SSW,212,13.0,17.0,63,0.00,,,0.00,112.000000,,2013-11-10 16:42:00,
2013-11-10 09:53:00,40.0,28.0,-100.00,SSW,212,13.0,17.0,63,0.00,,,0.00,112.000000,,2013-11-10 16:53:00,
2013-11-10 10:02:00,40.0,28.0,-100.00,SSW,212,13.0,17.0,63,0.00,,,0.00,112.000000,,2013-11-10 17:02:00,
2013-11-10 10:43:00,41.0,28.0,-100.00,SSW,207,13.0,19.0,60,0.00,,,-99.99,176.000000,,2013-11-10 17:43:00,
2013-11-10 10:52:00,41.0,28.0,-100.00,SSW,207,13.0,19.0,60,0.00,,,-99.99,176.000000,,2013-11-10 17:52:00,
2013-11-10 11:02:00,41.0,28.0,-100.00,SSW,207,13.0,19.0,60,0.00,,,-99.99,176.000000,,2013-11-10 18:02:00,
2013-11-10 11:42:00,44.0,29.0,-100.00,SSW,205,12.0,22.0,55,0.00,,,0.00,317.000000,,2013-11-10 18:42:00,
2013-11-10 11:52:00,44.0,29.0,-100.00,SSW,205,12.0,22.0,55,0.00,,,0.00,317.000000,,2013-11-10 18:52:00,
2013-11-10 12:01:00,44.0,29.0,-100.00,SSW,205,12.0,22.0,55,0.00,,,0.00,317.000000,,2013-11-10 19:01:00,
2013-11-10 12:42:00,47.0,30.0,-100.00,SSW,200,11.0,16.0,52,0.00,,,-99.99,473.000000,,2013-11-10 19:42:00,
2013-11-10 12:52:00,47.0,30.0,-100.00,SSW,200,11.0,16.0,52,0.00,,,-99.99,473.000000,,2013-11-10 19:52:00,
2013-11-10 13:01:00,47.0,30.0,-100.00,SSW,200,11.0,16.0,52,0.00,,,-99.99,473.000000,,2013-11-10 20:01:00,
2013-11-10 13:42:00,51.0,30.0,-100.00,SSW,199,11.0,18.0,44,0.00,,,0.00,554.000000,,2013-11-10 20:42:00,
2013-11-10 13:52:00,51.0,30.0,-100.00,SSW,199,11.0,18.0,44,0.00,,,0.00,554.000000,,2013-11-10 20:52:00,
2013-11-10 14:02:00,51.0,30.0,-100.00,SSW,199,11.0,18.0,44,0.00,,,0.00,554.000000,,2013-11-10 21:02:00,
2013-11-10 14:43:00,52.0,28.0,-100.00,SSW,197,14.0,25.0,40,0.00,,,0.00,524.000000,,2013-11-10 21:43:00,
2013-11-10 14:55:00,52.0,28.0,-100.00,SSW,197,14.0,25.0,40,0.00,,,0.00,524.000000,,2013-11-10 21:55:00,
2013-11-10 15:04:00,52.0,28.0,-100.00,SSW,197,14.0,25.0,40,0.00,,,0.00,524.000000,,2013-11-10 22:04:00,
2013-11-10 15:43:00,51.0,28.0,-100.00,SW,214,15.0,26.0,41,0.00,,,0.00,380.000000,,2013-11-10 22:43:00,
2013-11-10 15:54:00,51.0,28.0,-100.00,SW,214,15.0,26.0,41,0.00,,,0.00,380.000000,,2013-11-10 22:54:00,
2013-11-10 16:03:00,51.0,28.0,-100.00,SW,214,15.0,26.0,41,0.00,,,0.00,380.000000,,2013-11-10 23:03:00,
2013-11-10 16:43:00,50.0,28.0,-100.00,SSW,202,13.0,21.0,42,0.00,,,0.00,196.000000,,2013-11-10 23:43:00,
2013-11-10 16:53:00,50.0,28.0,-100.00,SSW,202,13.0,21.0,42,0.00,,,0.00,196.000000,,2013-11-10 23:53:00,
2013-11-10 17:02:00,50.0,28.0,-100.00,SSW,202,13.0,21.0,42,0.00,,,0.00,196.000000,,2013-11-11 00:02:00,
2013-11-10 17:42:00,47.0,27.0,-100.00,SW,222,11.0,20.0,46,0.00,,,0.00,52.000000,,2013-11-11 00:42:00,
2013-11-10 17:52:00,47.0,27.0,-100.00,SW,222,11.0,20.0,46,0.00,,,0.00,52.000000,,2013-11-11 00:52:00,
2013-11-10 18:02:00,47.0,27.0,-100.00,SW,222,11.0,20.0,46,0.00,,,0.00,52.000000,,2013-11-11 01:02:00,
2013-11-10 18:42:00,45.0,28.0,-100.00,WSW,238,7.0,18.0,51,0.00,,,0.00,1.000000,,2013-11-11 01:42:00,
2013-11-10 18:52:00,45.0,28.0,-100.00,WSW,238,7.0,18.0,51,0.00,,,0.00,1.000000,,2013-11-11 01:52:00,
2013-11-10 19:02:00,45.0,28.0,-100.00,WSW,238,7.0,18.0,51,0.00,,,0.00,1.000000,,2013-11-11 02:02:00,
2013-11-10 19:42:00,44.0,28.0,-100.00,SSW,202,5.0,9.0,53,0.00,,,0.00,0.000000,,2013-11-11 02:42:00,
2013-11-10 19:52:00,44.0,28.0,-100.00,SSW,202,5.0,9.0,53,0.00,,,0.00,0.000000,,2013-11-11 02:52:00,
2013-11-10 20:02:00,44.0,28.0,-100.00,SSW,202,5.0,9.0,53,0.00,,,0.00,0.000000,,2013-11-11 03:02:00,
2013-11-10 20:43:00,44.0,28.0,-100.00,SSW,203,6.0,10.0,52,0.00,,,0.00,0.000000,,2013-11-11 03:43:00,
2013-11-10 20:55:00,44.0,28.0,-100.00,SSW,203,6.0,10.0,52,0.00,,,0.00,0.000000,,2013-11-11 03:55:00,
2013-11-10 21:04:00,44.0,28.0,-100.00,SSW,203,6.0,10.0,52,0.00,,,0.00,0.000000,,2013-11-11 04:04:00,
2013-11-10 21:43:00,42.0,27.0,-100.00,SSW,203,4.0,11.0,54,0.00,,,-99.99,0.000000,,2013-11-11 04:43:00,
2013-11-10 21:53:00,42.0,27.0,-100.00,SSW,203,4.0,11.0,54,0.00,,,-99.99,0.000000,,2013-11-11 04:53:00,
2013-11-10 22:03:00,42.0,27.0,-100.00,SSW,203,4.0,11.0,54,0.00,,,-99.99,0.000000,,2013-11-11 05:03:00,
2013-11-10 22:44:00,43.0,27.0,-100.00,SW,224,5.0,8.0,52,0.00,,,0.00,0.000000,,2013-11-11 05:44:00,
2013-11-10 22:54:00,43.0,27.0,-100.00,SW,224,5.0,8.0,52,0.00,,,0.00,0.000000,,2013-11-11 05:54:00,
2013-11-10 23:03:00,43.0,27.0,-100.00,SW,224,5.0,8.0,52,0.00,,,0.00,0.000000,,2013-11-11 06:03:00,
2013-11-10 23:42:00,40.0,28.0,-100.00,NW,324,1.0,7.0,62,-99.99,,,0.00,0.000000,,2013-11-11 06:42:00,
2013-11-10 23:52:00,40.0,28.0,-100.00,NW,324,1.0,7.0,62,-99.99,,,0.00,0.000000,,2013-11-11 06:52:00,